Location: Newark
(37.9111°N, 95.1633°W)
Time: 17:54:45
(UTC+00:00)

N. Korean satellite - Pass Details

Date: 29 August 2019
Orbit: 455 x 508 km, 97.2° (Epoch: 15 September)

Event Time Altitude Azimuth Distance (km) Brightness Sun altitude
Rises 11:12:01 0° 37° (NE) 2,534 11.2 -7.6°
Reaches altitude 10° 11:15:37 10° 76° (ENE) 1,633 11.1 -7.0°
Maximum altitude 11:16:32 11° 91° (E) 1,576 10.5 -6.8°
Drops below altitude 10° 11:17:28 10° 107° (ESE) 1,622 10.2 -6.6°
Sets 11:20:58 0° 146° (SE) 2,477 10.4 -6.0°
